Belgrade Nikola Tesla, Serbia

3:09 AM CEST on June 28, 2017 (GMT +0200)
Belgrade

Weather History for LYBE - January, 2012

Change the Weather History Date:

Monday, January 16, 2012

  Actual Average Record
Temperature  
Mean Temperature 30 °F -  
Max Temperature 34 °F 40 °F 55 °F (2015)
Min Temperature 25 °F 27 °F 14 °F (2003)
Degree Days  
Heating Degree Days 36    
Moisture  
Dew Point 23 °F    
Average Humidity 73    
Maximum Humidity 93    
Minimum Humidity 42    
Precipitation  
Precipitation 0.01 in - - ()
Sea Level Pressure  
Sea Level Pressure 30.20 in    
Wind  
Wind Speed 8 mph ()    
Max Wind Speed 15 mph    
Max Gust Speed -    
Visibility 6.5 miles    
Events Snow    
Averages and records for this station are not official NWS values.
T = Trace of Precipitation, MM = Missing Value Source: Averaged Metar Reports

Daily Weather History Graph

Daily Weather History Graph

Search for Another Location

Airport or City:

Trip Planner

Search our weather history database for the weather conditions in past years. The results will help you decide how hot, cold, wet, or windy it might be!

Date:

Astronomy

Jan. 16, 2012 Rise Set
Actual Time 7:12 AM CET 4:24 PM CET
Civil Twilight 6:40 AM CET 4:57 PM CET
Nautical Twilight 6:04 AM CET 5:33 PM CET
Astronomical Twilight 5:28 AM CET 6:08 PM CET
Moon No Moon Rise 10:32 AM CET (1/16)
Length of Visible Light 10h 16m
Length of Day
9h 11m
Waning Gibbous, 49% of the Moon is Illuminated
Jan 16
Waning Gibbous
Jan 23
New
Jan 31
First Quarter
Feb 7
Full
Feb 14
Last Quarter

Hourly Weather History & Observations

Time (CET) Temp. Windchill Dew Point Humidity Pressure Visibility Wind Dir Wind Speed Gust Speed Precip Events Conditions
12:00 AM 30.2 °F 19.8 °F 21.2 °F 69% 30.09 in 6.2 mi NW 13.8 mph - N/A   Scattered Clouds
12:30 AM 30.2 °F 19.3 °F 21.2 °F 69% 30.09 in 6.2 mi NW 15.0 mph - N/A   Mostly Cloudy
1:00 AM 30 °F - 22 °F 60% 30.14 in 12 mi NW 11.2 mph - -   Mostly Cloudy
1:00 AM 30.2 °F 20.8 °F 21.2 °F 69% 30.12 in 6.2 mi NW 11.5 mph - N/A   Mostly Cloudy
1:30 AM 30.2 °F 20.8 °F 21.2 °F 69% 30.12 in 6.2 mi WNW 11.5 mph - N/A   Mostly Cloudy
2:00 AM 30.2 °F 20.8 °F 21.2 °F 69% 30.12 in 6.2 mi WNW 11.5 mph - N/A   Mostly Cloudy
2:30 AM 28.4 °F 20.4 °F 23.0 °F 80% 30.12 in 6.2 mi NNW 8.1 mph - N/A   Mostly Cloudy
3:00 AM 28.4 °F 19.7 °F 21.2 °F 74% 30.12 in 6.2 mi NNW 9.2 mph - N/A   Mostly Cloudy
3:30 AM 28.4 °F 20.4 °F 21.2 °F 74% 30.12 in 6.2 mi NNW 8.1 mph - N/A   Mostly Cloudy
4:00 AM 28 °F - 22 °F 70% 30.17 in 12 mi NW 6.7 mph - -   Mostly Cloudy
4:00 AM 28.4 °F 21.2 °F 21.2 °F 74% 30.12 in 6.2 mi NW 6.9 mph - N/A   Mostly Cloudy
4:30 AM 26.6 °F 21.2 °F 23.0 °F 86% 30.15 in 6.2 mi NW 4.6 mph - N/A   Mostly Cloudy
5:30 AM 26.6 °F 22.6 °F 21.2 °F 80% 30.15 in 6.2 mi West 3.5 mph - N/A   Scattered Clouds
6:00 AM 26.6 °F 22.6 °F 21.2 °F 80% 30.18 in - WNW 3.5 mph - N/A   Clear
6:30 AM 26.6 °F 20.0 °F 21.2 °F 80% 30.18 in - WNW 5.8 mph - N/A   Clear
7:00 AM 26 °F - 22 °F 78% 30.21 in 12 mi WNW 4.5 mph - -   Mostly Cloudy
7:00 AM 26.6 °F 21.2 °F 23.0 °F 86% 30.18 in - West 4.6 mph - N/A   Clear
7:30 AM 26.6 °F 20.0 °F 23.0 °F 86% 30.18 in - WNW 5.8 mph - N/A   Clear
8:00 AM 28.4 °F 23.3 °F 23.0 °F 80% 30.21 in - WNW 4.6 mph - N/A   Clear
8:30 AM 28.4 °F 23.3 °F 23.0 °F 80% 30.21 in - West 4.6 mph - N/A   Clear
9:00 AM 28.4 °F 21.2 °F 24.8 °F 86% 30.21 in 6.2 mi WNW 6.9 mph - N/A   Mostly Cloudy
9:30 AM 30.2 °F 23.4 °F 24.8 °F 80% 30.21 in 6.2 mi WNW 6.9 mph - N/A   Mostly Cloudy
10:00 AM 30 °F - 24 °F 69% 30.27 in 12 mi NW 6.7 mph - -   Mostly Cloudy
10:00 AM 30.2 °F 22.6 °F 23.0 °F 75% 30.24 in 6.2 mi NW 8.1 mph - N/A   Mostly Cloudy
10:30 AM 32.0 °F 26.4 °F 23.0 °F 69% 30.24 in 6.2 mi North 5.8 mph - N/A   Mostly Cloudy
11:00 AM 32.0 °F 25.6 °F 23.0 °F 69% 30.24 in 6.2 mi North 6.9 mph - N/A   Mostly Cloudy
11:30 AM 33.8 °F 30.8 °F 21.2 °F 60% 30.24 in 6.2 mi North 3.5 mph - N/A   Mostly Cloudy
12:00 PM 32.0 °F 26.4 °F 19.4 °F 60% 30.21 in 6.2 mi NNW 5.8 mph - N/A   Mostly Cloudy
12:30 PM 33.8 °F 27.7 °F 19.4 °F 56% 30.21 in 6.2 mi NNW 6.9 mph - N/A   Mostly Cloudy
1:00 PM 33 °F - 19 °F 42% 30.25 in 12 mi NW 6.7 mph - -   Mostly Cloudy
1:00 PM 33.8 °F 27.7 °F 17.6 °F 52% 30.21 in 6.2 mi NW 6.9 mph - N/A   Scattered Clouds
1:30 PM 33.8 °F 28.6 °F 17.6 °F 52% 30.21 in 6.2 mi NW 5.8 mph - N/A   Scattered Clouds
2:00 PM 32.0 °F 25.6 °F 19.4 °F 60% 30.21 in 6.2 mi NNW 6.9 mph - N/A   Mostly Cloudy
2:30 PM 32.0 °F 23.6 °F 23.0 °F 69% 30.21 in 6.2 mi WNW 10.4 mph - N/A   Mostly Cloudy
3:00 PM 32.0 °F 24.2 °F 23.0 °F 69% 30.21 in 6.2 mi WNW 9.2 mph - N/A   Mostly Cloudy
3:30 PM 32.0 °F 23.0 °F 23.0 °F 69% 30.21 in 6.2 mi WNW 11.5 mph - N/A Snow Light Snow Showers
4:00 PM 31 °F - 23 °F 64% 30.26 in 2 mi NW 8.9 mph - - Snow Snow
4:00 PM 32.0 °F 23.6 °F 23.0 °F 69% 30.24 in 2.5 mi NW 10.4 mph - N/A Snow Snow Showers
4:30 PM 32.0 °F 23.0 °F 24.8 °F 75% 30.21 in 4.3 mi NW 11.5 mph - N/A Snow Light Snow Showers
5:00 PM 30.2 °F 25.4 °F 24.8 °F 80% 30.24 in 6.2 mi NW 4.6 mph - N/A Snow Light Snow Showers
5:30 PM 30.2 °F 22.6 °F 24.8 °F 80% 30.24 in 6.2 mi WNW 8.1 mph - N/A   Scattered Clouds
6:00 PM 30.2 °F 21.9 °F 24.8 °F 80% 30.24 in 6.2 mi West 9.2 mph - N/A   Scattered Clouds
6:30 PM 30.2 °F 23.4 °F 24.8 °F 80% 30.24 in - West 6.9 mph - N/A   Clear
7:00 PM 31 °F - 24 °F 67% 30.27 in 6 mi West 6.7 mph - -   Partly Cloudy
7:00 PM 30.2 °F 21.9 °F 23.0 °F 75% 30.24 in 6.2 mi West 9.2 mph - N/A   Partly Cloudy
7:30 PM 30.2 °F 21.9 °F 23.0 °F 75% 30.24 in 6.2 mi West 9.2 mph - N/A   Scattered Clouds
8:00 PM 30.2 °F 21.3 °F 23.0 °F 75% 30.24 in - West 10.4 mph - N/A   Clear
8:30 PM 30.2 °F 21.3 °F 23.0 °F 75% 30.24 in - West 10.4 mph - N/A   Clear
9:00 PM 30.2 °F 23.4 °F 23.0 °F 75% 30.24 in 6.2 mi NW 6.9 mph - N/A   Mostly Cloudy
9:30 PM 30.2 °F 25.4 °F 23.0 °F 75% 30.24 in 6.2 mi NNW 4.6 mph - N/A   Mostly Cloudy
10:00 PM 30 °F - 23 °F 67% 30.28 in 6 mi WNW 13.4 mph - -   Mostly Cloudy
10:00 PM 30.2 °F 19.3 °F 24.8 °F 80% 30.24 in 6.2 mi WNW 15.0 mph - N/A   Mostly Cloudy
10:30 PM 28.4 °F 19.1 °F 23.0 °F 80% 30.24 in 6.2 mi WNW 10.4 mph - N/A   Partly Cloudy
11:00 PM 28.4 °F 18.5 °F 26.6 °F 93% 30.24 in 2.5 mi NW 11.5 mph - N/A Snow Light Snow Showers
11:30 PM 28.4 °F 20.4 °F 26.6 °F 93% 30.24 in 6.2 mi WNW 8.1 mph - N/A   Scattered Clouds